Hoquiam, WA
on Thursday, November 15, 2012

Thursday
Previous Day Next Day
Daily Summary
 ActualAverageRecord
Temperature
Mean Temperature °F 46°F  
Max Temperature 48°F 51°F 61°F (2001)
Min Temperature 37°F 41°F 12°F (1955)
Degree Days
Heating Degree Days 22 19  
Month to date heating degree days 264  
Cooling Degree Days 0 0  
Month to date cooling degree days 0  
Year to date cooling degree days 23  
Moisture
Dew Point 40°F   
Average Humidity 92    
Maximum Humidity 100    
Minimum Humidity 80    
Precipitation
Precipitation 0.01 in 0.38 in 1.35 in (1985)
Month to date precipitation 5.43  
Year to date precipitation 51.85  
Wind
Wind Speed 7 mph   
Max Wind Speed 15 mph   
Max Gust Speed mph   
Visibility 8 miles   
Events     

Key: T is trace of precipitation, MM is missing value
Source: NWS Daily Summary
Time(PST)TemperatureDew PointHumidity Pressure Visibility Wind DirectionWind SpeedGust SpeedPrecipitationEvents Conditions
12:53 AM 39.0°F 37.9°F 96% 30.24 in 5.0 miles ENE 4.6 mph - N/A   Clear
1:44 AM 37.4°F 37.4°F 100% 30.22 in 2.5 miles ENE 5.8 mph - N/A   Scattered Clouds
1:53 AM 37.9°F 37.9°F 100% 30.23 in 2.5 miles ENE 4.6 mph - N/A   Scattered Clouds
1:59 AM 37.4°F 37.4°F 100% 30.22 in 1.8 miles ENE 3.5 mph - N/A   Mostly Cloudy
2:35 AM 37.4°F 37.4°F 100% 30.21 in 2.0 miles East 5.8 mph - 0.01 in   Mostly Cloudy
2:42 AM 37.4°F 37.4°F 100% 30.21 in 2.0 miles ENE 3.5 mph - 0.01 in   Scattered Clouds
2:53 AM 37.0°F 36.0°F 96% 30.22 in 1.8 miles NE 6.9 mph - 0.01 in   Partly Cloudy
2:57 AM 37.4°F 37.4°F 100% 30.20 in 3.0 miles NE 5.8 mph - N/A   Partly Cloudy
3:25 AM 39.2°F 39.2°F 100% 30.20 in 4.0 miles ENE 3.5 mph - N/A   Mostly Cloudy
3:53 AM 39.9°F 39.0°F 97% 30.19 in 8.0 miles NE 6.9 mph - N/A   Mostly Cloudy
4:04 AM 41.0°F 39.2°F 93% 30.18 in 10.0 miles NE 8.1 mph - N/A   Mostly Cloudy
4:53 AM 42.1°F 41.0°F 96% 30.17 in 10.0 miles NE 8.1 mph - N/A   Overcast
5:15 AM 42.8°F 39.2°F 87% 30.16 in 10.0 miles NE 8.1 mph - N/A   Scattered Clouds
5:53 AM 39.9°F 39.0°F 97% 30.16 in 9.0 miles NE 3.5 mph - N/A   Scattered Clouds
6:02 AM 39.2°F 39.2°F 100% 30.14 in 10.0 miles NE 4.6 mph - N/A   Mostly Cloudy
6:53 AM 42.1°F 39.9°F 92% 30.14 in 10.0 miles NE 11.5 mph - N/A   Overcast
7:53 AM 42.1°F 39.9°F 92% 30.13 in 10.0 miles NE 12.7 mph - N/A   Overcast
8:41 AM 42.8°F 39.2°F 87% 30.10 in 10.0 miles ENE 9.2 mph - N/A   Overcast
8:53 AM 43.0°F 41.0°F 93% 30.11 in 10.0 miles ENE 10.4 mph - N/A   Overcast
9:53 AM 44.1°F 41.0°F 89% 30.09 in 10.0 miles ENE 12.7 mph - N/A   Mostly Cloudy
10:53 AM 46.0°F 42.1°F 86% 30.08 in 10.0 miles ENE 13.8 mph - N/A   Overcast
11:49 AM 46.4°F 42.8°F 87% 30.04 in 10.0 miles ENE 13.8 mph - N/A   Scattered Clouds
11:53 AM 46.0°F 42.1°F 86% 30.05 in 10.0 miles East 15.0 mph - N/A   Partly Cloudy
12:53 PM 48.0°F 42.1°F 80% 30.03 in 10.0 miles East 13.8 mph - N/A   Clear
1:53 PM 48.0°F 43.0°F 83% 30.01 in 10.0 miles East 10.4 mph - N/A   Clear
2:53 PM 48.9°F 43.0°F 80% 30.00 in 10.0 miles East 8.1 mph - N/A   Clear
3:53 PM 48.0°F 43.0°F 83% 29.99 in 10.0 miles East 8.1 mph - N/A   Clear
4:53 PM 46.0°F 42.1°F 86% 29.98 in 10.0 miles NE 4.6 mph - N/A   Clear
5:53 PM 44.1°F 41.0°F 89% 29.97 in 10.0 miles NE 5.8 mph - N/A   Clear
6:53 PM 44.1°F 42.1°F 93% 29.97 in 10.0 miles ENE 5.8 mph - N/A   Clear
7:53 PM 43.0°F 41.0°F 93% 29.96 in 10.0 miles ENE 6.9 mph - N/A   Mostly Cloudy
8:53 PM 43.0°F 41.0°F 93% 29.96 in 7.0 miles ENE 8.1 mph - N/A   Overcast
9:53 PM 42.1°F 39.9°F 92% 29.95 in 6.0 miles ENE 8.1 mph - N/A   Mostly Cloudy
10:27 PM 42.8°F 41.0°F 93% 29.94 in 7.0 miles ENE 10.4 mph - N/A   Mostly Cloudy
10:39 PM 42.8°F 41.0°F 93% 29.94 in 6.0 miles ENE 9.2 mph - N/A   Overcast
10:53 PM 42.1°F 41.0°F 96% 29.95 in 6.0 miles ENE 10.4 mph - N/A   Overcast
11:31 PM 42.8°F 41.0°F 93% 29.93 in 7.0 miles ENE 8.1 mph - N/A   Overcast
11:53 PM 43.0°F 41.0°F 93% 29.94 in 7.0 miles ENE 9.2 mph - N/A   Overcast
Moon Phase
Nov. 15 Nov. 20 Nov. 28 Dec. 06 Dec. 13
Sunrise:07:19 AM (PST) Moon Rise:09:26 AM (PST)11/15
Sunset:04:40 PM (PST) Moon Set:06:33 PM (PST)11/15

Copyright © 2014 The Weather Underground, Inc.